Showing default

LEMUR 2 ESPERANZA, 63352

Orbit data source: Space-Track

LEMUR 2 ESPERANZA, 63352 is a payload satellite owned by OroraTech (US) in SSO that was launched on Wed, 26 Mar 2025 UTC via an ELECTRON launch vehicle from the Rocket Lab Launch Complex (RLLC). Payload-class satellites include a variety of spacecraft equipped with specific instruments for various scientific and technological missions. These include communications satellites like Starlink; space stations such as the ISS; scientific satellites like the Hubble; Earth observation satellites from companies like Planet Labs, Umbra, and HawkEye 360; GPS; miniature CubeSats for education and research; and military/defense satellites.

Loading next visibility...
Identifier
63352, 2025-061B
Orbit
SSO
Country
Flag of USUS
Related business
Manufacturer
Spire/Glasgow
Mission
Operational Commercial Imaging
Bus & Motor
CUBESAT 6U, Unknown motor
Mass
~15 kg wet, ~15 kg dry
Launch date (UTC)
2025-03-26 (6 months ago)
Launch vehicle
ELECTRON
Launch site
Rocket Lab Launch Complex (RLLC)
Object type
Payload
Rocket body
Debris
Shape & HBR
Box + 2 Pan, 0.2 m
Radar Cross Section
0.065 m², Medium (>0.1 m² and < 1m²)

Expand to show TLE details & history
Last TLE update: 19 hours ago

TLE from 19 hours ago
0 LEMUR 2 ESPERANZA
1 63352U 25061B   25260.98546913  .00004718  00000-0  28905-3 0  9990
2 63352  97.5326 234.4546 0021616 118.2065 242.1351 15.10465569 26457
Epoch: 2025-09-17T23:39Z
TLE epoch observation values (Epoch: 2025-09-17T23:39:04.532Z)
Latitude
-0.00004°
Longitude
-117.46784°
Altitude
544.864 km
Speed
7.586 km/s
True Right ascension
15h 37m 49s
True Declination
0° 00' 00"
Sunlit
Object was in daylight at epoch
Visualization orbit readout
Latitude
Unknown
Longitude
Unknown
Altitude
Unknown
Speed
Unknown
Apparent Right ascension
Unknown
Apparent Declination
Unknown
Sunlit
N/A
Visualization observer readout
Local Sidereal Time
11:10:02
Azimuth
Unknown
Elevation
Unknown
Doppler factor
Unknown
Orbital elements
Apogee altitude
546.7 km
Perigee altitude
516.827 km
Semi-major axis
6,909.9 km
Eccentricity
0.00216
Inclination
97.5326°
RAAN
234.4546°
Arg. of periapsis
118.2065°
True anomaly
241.9164°
Mean anomaly
242.1351°
Eccentric anomaly
242.02572°
Mean motion
3.77864 °/min
Orbital period
95.27 mins
BSTAR
0.00028905
Loading maneuver chart data...
Computing Atmospheric mass density...
Loading historical data...
Loading historical data...
Loading historical data...
Loading historical data...
Loading historical data...
Loading historical data...
Loading historical data...

Documentation

Showing up to 5 results
|